TimeMST,TemperatureF,Dew PointF,Humidity,Sea Level PressureIn,VisibilityMPH,Wind Direction,Wind SpeedMPH,Gust SpeedMPH,PrecipitationIn,Events,Conditions,WindDirDegrees,DateUTC
12:53 AM,39.9,28.9,65,29.82,10.0,SE,11.5,-,N/A,,Clear,140,2012-11-18 07:53:00
1:53 AM,37.0,28.0,70,29.81,10.0,SSE,6.9,-,N/A,,Clear,150,2012-11-18 08:53:00
2:53 AM,35.1,28.0,76,29.80,10.0,SSE,6.9,-,N/A,,Clear,150,2012-11-18 09:53:00
3:53 AM,34.0,27.0,75,29.78,10.0,SSE,8.1,-,N/A,,Clear,160,2012-11-18 10:53:00
4:53 AM,32.0,27.0,82,29.79,10.0,SE,5.8,-,N/A,,Clear,130,2012-11-18 11:53:00
5:53 AM,30.9,26.1,82,29.78,10.0,SSE,5.8,-,N/A,,Clear,160,2012-11-18 12:53:00
6:53 AM,30.0,26.1,85,29.77,10.0,SSE,6.9,-,N/A,,Clear,150,2012-11-18 13:53:00
7:53 AM,32.0,28.0,85,29.78,10.0,ESE,5.8,-,N/A,,Clear,110,2012-11-18 14:53:00
8:53 AM,35.1,28.9,78,29.78,10.0,Calm,Calm,-,N/A,,Clear,0,2012-11-18 15:53:00
9:53 AM,39.0,30.9,73,29.78,10.0,SSE,8.1,-,N/A,,Clear,160,2012-11-18 16:53:00
10:53 AM,45.0,33.1,63,29.78,10.0,SE,10.4,-,N/A,,Clear,140,2012-11-18 17:53:00
11:53 AM,45.0,34.0,65,29.77,10.0,SSE,4.6,-,N/A,,Clear,150,2012-11-18 18:53:00
12:53 PM,48.0,34.0,58,29.79,10.0,WNW,3.5,-,N/A,,Overcast,290,2012-11-18 19:53:00
1:53 PM,50.0,36.0,59,29.81,10.0,Variable,3.5,-,N/A,,Partly Cloudy,0,2012-11-18 20:53:00
2:53 PM,52.0,37.0,57,29.83,10.0,WNW,4.6,-,N/A,,Clear,300,2012-11-18 21:53:00
3:53 PM,51.1,36.0,56,29.89,10.0,West,3.5,-,N/A,,Clear,280,2012-11-18 22:53:00
4:53 PM,46.9,33.1,59,29.94,10.0,North,6.9,-,N/A,,Mostly Cloudy,350,2012-11-18 23:53:00
5:53 PM,45.0,33.1,63,29.96,10.0,Calm,Calm,-,N/A,,Clear,0,2012-11-19 00:53:00
6:53 PM,39.9,32.0,73,29.99,10.0,Calm,Calm,-,N/A,,Partly Cloudy,0,2012-11-19 01:53:00
7:53 PM,37.9,32.0,79,30.03,10.0,WNW,12.7,-,N/A,,Scattered Clouds,290,2012-11-19 02:53:00
8:53 PM,36.0,30.0,79,30.04,10.0,NNW,5.8,-,N/A,,Mostly Cloudy,330,2012-11-19 03:53:00
9:53 PM,37.9,32.0,79,30.06,10.0,Calm,Calm,-,N/A,,Overcast,0,2012-11-19 04:53:00
10:53 PM,35.1,30.0,82,30.07,10.0,WNW,5.8,-,N/A,,Mostly Cloudy,300,2012-11-19 05:53:00
11:53 PM,37.0,30.9,79,30.08,10.0,NNW,4.6,-,N/A,,Overcast,330,2012-11-19 06:53:00